Weather History for Deadhorse, AK

Change the Weather History Date:

Sunday, February 17, 2013

  Actual Average Record
Temperature  
Mean Temperature -26 °F -  
Max Temperature -16 °F -9 °F 30 °F (1989)
Min Temperature -36 °F -20 °F -57 °F (1987)
Degree Days  
Heating Degree Days 91    
Moisture  
Dew Point -25 °F    
Average Humidity 72    
Maximum Humidity 76    
Minimum Humidity 69    
Precipitation  
Precipitation 0.00 in - - ()
Sea Level Pressure  
Sea Level Pressure 30.46 in    
Wind  
Wind Speed 8 mph (NW)    
Max Wind Speed 14 mph    
Max Gust Speed -    
Visibility 5 miles    
Events Snow    
Averages and records for this station are not official NWS values.
T = Trace of Precipitation, MM = Missing Value Source: NWS Daily Summary

Daily Weather History Graph

Daily Weather History Graph

Search for Another Location

Airport:

Trip Planner

Search our weather history database for the weather conditions in past years. The results will help you decide how hot, cold, wet, or windy it might be!

Date:

Astronomy

Feb. 17, 2013 Rise Set
Actual Time 9:16 AM AKST 5:00 PM AKST
Civil Twilight 8:08 AM AKST 6:08 PM AKST
Nautical Twilight 6:56 AM AKST 7:20 PM AKST
Astronomical Twilight 5:45 AM AKST 8:32 PM AKST
Moon 7:54 AM AKST (2/17) 5:21 AM AKST (2/17)
Length of Visible Light 10h 00m
Length of Day
7h 43m
Waxing Crescent, 50% of the Moon is Illuminated
Feb 17
Waxing Crescent
Feb 25
Full
Mar 4
Last Quarter
Mar 11
New
Mar 19
First Quarter

Hourly Weather History & Observations

Time (AKST) Temp. Windchill Dew Point Humidity Pressure Visibility Wind Dir Wind Speed Gust Speed Precip Events Conditions
12:00 AM -16.6 °F -34.4 °F -23.8 °F 70% 30.33 in 2.0 mi NE 8.1 mph - N/A Snow Light Snow
12:53 AM -16.1 °F -33.7 °F -22.0 °F 74% 30.35 in 2.0 mi NE 8.1 mph - N/A Snow Light Snow
1:49 AM -16.6 °F -32.9 °F -23.8 °F 70% 30.35 in 3.0 mi NE 6.9 mph - N/A   Overcast
1:53 AM -16.1 °F -32.3 °F -23.1 °F 71% 30.36 in 3.0 mi NE 6.9 mph - N/A   Overcast
2:53 AM -16.1 °F -32.3 °F -22.0 °F 74% 30.36 in 3.0 mi NE 6.9 mph - N/A   Overcast
3:07 AM -16.6 °F -34.4 °F -22.0 °F 76% 30.35 in 2.5 mi NE 8.1 mph - N/A   Overcast
3:53 AM -16.1 °F -32.3 °F -22.0 °F 74% 30.36 in 2.5 mi NE 6.9 mph - N/A   Overcast
4:12 AM -16.6 °F -32.9 °F -23.8 °F 70% 30.35 in 3.0 mi NE 6.9 mph - N/A   Overcast
4:30 AM -16.6 °F -31.3 °F -22.0 °F 76% 30.35 in 10.0 mi NE 5.8 mph - N/A   Overcast
4:53 AM -16.1 °F -30.6 °F -22.0 °F 74% 30.37 in 7.0 mi NE 5.8 mph - N/A   Overcast
5:22 AM -16.6 °F -32.9 °F -23.8 °F 70% 30.36 in 2.5 mi NE 6.9 mph - N/A Snow Light Snow
5:44 AM -16.6 °F -34.4 °F -23.8 °F 70% 30.36 in 2.5 mi NE 8.1 mph - N/A Snow Light Snow
5:53 AM -17.0 °F -33.4 °F -23.1 °F 74% 30.38 in 2.0 mi NE 6.9 mph - N/A Snow Light Snow
6:53 AM -17.0 °F -33.4 °F -23.1 °F 74% 30.39 in 2.5 mi NE 6.9 mph - N/A Snow Light Snow
7:53 AM -17.0 °F -31.7 °F -24.0 °F 70% 30.40 in 3.0 mi NE 5.8 mph - N/A Snow Light Snow
8:53 AM -18.0 °F - -25.1 °F 70% 30.40 in 5.0 mi Calm Calm - N/A   Overcast
9:53 AM -18.0 °F -28.5 °F -25.1 °F 70% 30.41 in 3.0 mi North 3.5 mph - N/A   Overcast
10:53 AM -20.0 °F -30.7 °F -26.0 °F 74% 30.43 in 3.0 mi WNW 3.5 mph - N/A   Mostly Cloudy
11:53 AM -23.1 °F -42.3 °F -29.0 °F 74% 30.44 in 3.0 mi WNW 8.1 mph - N/A   Mostly Cloudy
12:53 PM -24.0 °F -40.0 °F -29.9 °F 74% 30.45 in 7.0 mi NW 5.8 mph - N/A   Partly Cloudy
1:53 PM -29.0 °F -51.0 °F -36.0 °F 69% 30.47 in 6.0 mi SW 9.2 mph - N/A   Mostly Cloudy
2:11 PM -29.2 °F -51.2 °F - N/A% 30.46 in 7.0 mi SW 9.2 mph - N/A   Scattered Clouds
2:53 PM -29.9 °F -53.4 °F - N/A% 30.48 in 5.0 mi SW 10.4 mph - N/A   Partly Cloudy
3:53 PM -32.1 °F -54.7 °F - N/A% 30.50 in 5.0 mi WSW 9.2 mph - N/A   Scattered Clouds
4:53 PM -33.0 °F -57.2 °F - N/A% 30.51 in 5.0 mi WSW 10.4 mph - N/A   Partly Cloudy
5:53 PM -35.0 °F -60.9 °F - N/A% 30.54 in 5.0 mi WSW 11.5 mph - N/A   Partly Cloudy
6:00 PM -34.6 °F -60.5 °F - N/A% 30.53 in 5.0 mi WSW 11.5 mph - N/A   Partly Cloudy
6:53 PM -36.0 °F -62.3 °F - N/A% 30.56 in 5.0 mi WSW 11.5 mph - N/A   Partly Cloudy
8:03 PM -34.6 °F -60.5 °F - N/A% 30.57 in 5.0 mi WSW 11.5 mph - N/A Snow Light Snow
8:13 PM -34.6 °F -60.5 °F - N/A% 30.57 in 4.0 mi WSW 11.5 mph - N/A   Overcast
8:53 PM -35.0 °F -62.1 °F - N/A% 30.60 in 8.0 mi SW 12.7 mph - N/A   Mostly Cloudy
9:06 PM -34.6 °F -62.7 °F - N/A% 30.59 in 10.0 mi SW 13.8 mph - N/A   Scattered Clouds
9:53 PM -36.0 °F -63.4 °F - N/A% 30.61 in 10.0 mi SW 12.7 mph - N/A   Partly Cloudy
10:03 PM -36.4 °F -63.9 °F - N/A% 30.61 in 10.0 mi WSW 12.7 mph - N/A   Mostly Cloudy
10:42 PM -36.4 °F -62.7 °F - N/A% 30.61 in 10.0 mi WSW 11.5 mph - N/A   Mostly Cloudy
10:53 PM -36.0 °F -63.4 °F - N/A% 30.62 in 10.0 mi WSW 12.7 mph - N/A   Mostly Cloudy
11:53 PM -36.0 °F -62.3 °F - N/A% 30.65 in 10.0 mi WSW 11.5 mph - N/A   Mostly Cloudy